Mosinee, WI

1:45 PM CST on February 24, 2017 (GMT -0600)
Central Wisconsin

Weather History for KCWA - June, 2013

Change the Weather History Date:

Wednesday, June 12, 2013

  Actual Average Record
Temperature  
Mean Temperature 64 °F -  
Max Temperature 71 °F 71 °F 82 °F (1997)
Min Temperature 57 °F 50 °F 37 °F (2011)
Degree Days  
Heating Degree Days 1    
Growing Degree Days 14 (Base 50)    
Moisture  
Dew Point 60 °F    
Average Humidity 91    
Maximum Humidity 100    
Minimum Humidity 64    
Precipitation  
Precipitation 0.02 in - - ()
Sea Level Pressure  
Sea Level Pressure 29.88 in    
Wind  
Wind Speed 5 mph (NE)    
Max Wind Speed 10 mph    
Max Gust Speed -    
Visibility 10 miles    
Events Rain , Thunderstorm    
Averages and records for this station are not official NWS values.
T = Trace of Precipitation, MM = Missing Value Source: NWS Daily Summary

Daily Weather History Graph

Daily Weather History Graph

Search for Another Location

Airport or City:

Trip Planner

Search our weather history database for the weather conditions in past years. The results will help you decide how hot, cold, wet, or windy it might be!

Date:

Astronomy

Jun. 12, 2013 Rise Set
Actual Time 5:12 AM CDT 8:45 PM CDT
Civil Twilight 4:35 AM CDT 9:22 PM CDT
Nautical Twilight 3:46 AM CDT 10:11 PM CDT
Astronomical Twilight 2:42 AM CDT 11:14 PM CDT
Moon 8:59 AM CDT (6/12) 11:12 PM CDT (6/12)
Length of Visible Light 16h 46m
Length of Day
15h 32m
Waxing Crescent, 14% of the Moon is Illuminated
Jun 12
Waxing Crescent
Jun 16
First Quarter
Jun 23
Full
Jun 29
Last Quarter
Jul 8
New

Hourly Weather History & Observations

Time (CDT) Temp. Dew Point Humidity Pressure Visibility Wind Dir Wind Speed Gust Speed Precip Events Conditions
12:15 AM 62.6 °F 62.6 °F 100% 29.90 in 10.0 mi Calm Calm - N/A   Clear
12:35 AM 62.6 °F 60.8 °F 94% 29.90 in 10.0 mi NNE 4.6 mph - N/A   Clear
12:55 AM 64.4 °F 60.8 °F 88% 29.90 in 10.0 mi North 6.9 mph - N/A   Scattered Clouds
1:15 AM 64.4 °F 59.0 °F 83% 29.91 in 10.0 mi NE 6.9 mph - N/A   Scattered Clouds
1:35 AM 62.6 °F 55.4 °F 77% 29.92 in 10.0 mi ENE 4.6 mph - N/A   Scattered Clouds
1:55 AM 62.6 °F 59.0 °F 88% 29.93 in 7.0 mi ENE 3.5 mph - 0.01 in Rain Light Rain
2:15 AM 60.8 °F 59.0 °F 94% 29.93 in 10.0 mi ESE 5.8 mph - 0.01 in Rain Light Rain
2:35 AM 60.8 °F 59.0 °F 94% 29.86 in 10.0 mi ENE 10.4 mph - 0.01 in Rain Light Rain
2:55 AM 60.8 °F 59.0 °F 94% 29.92 in 10.0 mi ENE 6.9 mph - 0.01 in   Clear
3:15 AM 60.8 °F 59.0 °F 94% 29.92 in 10.0 mi East 4.6 mph - N/A   Clear
3:35 AM 60.8 °F 59.0 °F 94% 29.91 in 10.0 mi ESE 4.6 mph - N/A   Clear
3:55 AM 60.8 °F 59.0 °F 94% 29.90 in 10.0 mi ENE 6.9 mph - N/A   Clear
4:15 AM 59.0 °F 59.0 °F 100% 29.94 in 10.0 mi South 5.8 mph - N/A   Clear
4:35 AM 57.2 °F 57.2 °F 100% 29.95 in 7.0 mi Calm Calm - N/A   Clear
4:55 AM 59.0 °F 59.0 °F 100% 29.96 in 7.0 mi Calm Calm - N/A   Clear
5:15 AM 59.0 °F 59.0 °F 100% 29.92 in 7.0 mi NE 5.8 mph - N/A   Clear
5:35 AM 57.2 °F 57.2 °F 100% 29.92 in 5.0 mi NE 5.8 mph - N/A   Clear
5:47 AM 60.8 °F 60.8 °F 100% 29.89 in 10.0 mi East 5.8 mph - N/A   Mostly Cloudy
6:47 AM 60.8 °F 60.8 °F 100% 29.91 in 10.0 mi Calm Calm - N/A   Scattered Clouds
7:55 AM 62.6 °F 62.6 °F 100% 29.92 in 10.0 mi Calm Calm - N/A   Scattered Clouds
8:45 AM 64.4 °F 62.6 °F 94% 29.90 in 100.0 mi ESE 6.9 mph - N/A   Scattered Clouds
9:45 AM 68.0 °F 57.2 °F 68% 29.87 in 10.0 mi East 10.4 mph - N/A   Scattered Clouds
10:50 AM 69.8 °F 57.2 °F 64% 29.88 in 10.0 mi East 5.8 mph - N/A   Scattered Clouds
12:45 PM 69.8 °F 60.8 °F 73% 29.86 in 10.0 mi East 8.1 mph - N/A   Scattered Clouds
1:45 PM 69.8 °F 60.8 °F 73% 29.89 in 10.0 mi Calm Calm - N/A   Mostly Cloudy
2:45 PM 71.6 °F 59.0 °F 64% 29.86 in 10.0 mi ESE 4.6 mph - N/A   Mostly Cloudy
3:45 PM 71.6 °F 64.4 °F 78% 29.83 in 10.0 mi East 5.8 mph - N/A   Mostly Cloudy
4:45 PM 66.2 °F 62.6 °F 88% 29.82 in 10.0 mi NNE 4.6 mph - N/A Rain , Thunderstorm Thunderstorms and Rain
5:45 PM 64.4 °F 62.6 °F 94% 29.78 in 10.0 mi North 8.1 mph - N/A Rain Light Rain
6:45 PM 64.4 °F 62.6 °F 94% 29.76 in 10.0 mi East 4.6 mph - N/A   Mostly Cloudy
7:45 PM 64.4 °F 62.6 °F 94% 29.79 in 10.0 mi North 4.6 mph - N/A   Mostly Cloudy
8:45 PM 62.6 °F 60.8 °F 94% 29.83 in 10.0 mi North 6.9 mph - N/A   Mostly Cloudy
9:45 PM 62.6 °F 60.8 °F 94% 29.85 in 10.0 mi North 5.8 mph - N/A   Overcast
10:15 PM 60.8 °F 60.8 °F 100% 29.84 in 10.0 mi North 5.8 mph - N/A   Overcast
10:35 PM 60.8 °F 60.8 °F 100% 29.83 in 10.0 mi NNE 4.6 mph - N/A   Overcast
10:55 PM 60.8 °F 60.8 °F 100% 29.83 in 10.0 mi North 4.6 mph - N/A   Mostly Cloudy
11:15 PM 60.8 °F 60.8 °F 100% 29.84 in 10.0 mi NNW 6.9 mph - N/A   Mostly Cloudy
11:35 PM 60.8 °F 60.8 °F 100% 29.84 in 10.0 mi NNW 6.9 mph - N/A   Overcast
11:55 PM 60.8 °F 60.8 °F 100% 29.84 in 10.0 mi NNW 8.1 mph - N/A   Mostly Cloudy